Weather in Rava-Russkaya

Ukraine / Lviv District     50°14′00″N   23°37′13″E
temp.,
°C
wind,
m/s
gust,
m/s
humid.,
%
clouds,
%
prec.,
mm/h
press.,
hPa
HPBL,
m
16 september, thu
thu1600:00+14ese3380100 0.0 101753
03:00+13ese338487 0.0 101648
06:00+13sse358661 0.0 101574
09:00+17sse3774100 0.0 1014173
12:00+22ssw4554100 0.0 1014702
15:00+25wsw564896 0.0 10131126
18:00+19wsw3569100 0.0 1013114
21:00+18sse2270100 0.0 101311
17 september, fri
fri1700:00+17se237398 0.3 101248
03:00+18ssw487687 0.1 1010189
06:00+16wsw248776 0.1 101091
09:00+17wnw2380100 0.1 1009210
12:00+19nw2273100 0.0 1008564
15:00+18nw2186100 1.1 1007296
18:00+14nw61297100 5.9 1006546
21:00+13wnw71397100 14.1 1007582
18 september, sat
sat1800:00+13wnw61395100 2.6 1008619
03:00+12wnw71394100 2.6 1009510
06:00+12w61194100 0.0 1008655
09:00+12w71395100 0.4 1008701
12:00+13w81291100 0.5 1009707
15:00+12w7139370 1.2 1010636
18:00+12w61194100 1.4 1009726
21:00+10wnw4794100 2.8 1010447
19 september, sun
sun1900:00+8wnw3692100 0.3 1011514
03:00+7w4793100 0.8 1012564
06:00+6w5892100 0.2 1012911
09:00+6w4693100 0.3 1013919
12:00+7w5894100 0.1 1013517
15:00+7wnw5892100 0.4 1014561
18:00+7wnw5894100 0.4 1014729
21:00+7wnw5894100 0.5 1015731
20 september, mon
mon2000:00+6wnw4897100 0.3 1015595
03:00+6nw4897100 0.3 1015571
06:00+6nw4796100 0.2 1015613
09:00+6nw5793100 0.6 1016772
12:00+6nw5789100 0.1 1017881
15:00+5nw5791100 0.3 1018919
18:00+5nw5893100 0.2 1018915
21:00+4nw5792100 0.3 1020917